This is the latest recevied weather packets stored in our database for station/object RW6A-13. If no packets are shown the sender has not sent any weather packets the latest 1 day(s).
| Time | Temp. | Humidity | Pressure | Rain* | Wind** | Luminosity | Snow |
|---|---|---|---|---|---|---|---|
| 1777984227 | 16.11° C | 62% | 1008.4 hPa | 0 mm | 1.34 m/s, 45° | - | - |
| 1777983927 | 16.11° C | 63% | 1008.4 hPa | 0 mm | 1.34 m/s, 45° | - | - |
| 1777983627 | 16.11° C | 62% | 1008.5 hPa | 0 mm | 0.45 m/s, 135° | - | - |
| 1777983327 | 16.11° C | 61% | 1008.5 hPa | 0 mm | 0.89 m/s, 90° | - | - |
| 1777983026 | 16.11° C | 62% | 1008.6 hPa | 0 mm | 0.89 m/s, 113° | - | - |
| 1777982726 | 16.11° C | 60% | 1008.5 hPa | 0 mm | 0.89 m/s, 135° | - | - |
| 1777982427 | 16.11° C | 60% | 1008.5 hPa | 0 mm | 0.89 m/s, 45° | - | - |
| 1777982126 | 16.11° C | 60% | 1008.5 hPa | 0 mm | 0.89 m/s, 0° | - | - |
| 1777981826 | 16.11° C | 60% | 1008.5 hPa | 0 mm | 0.45 m/s, 0° | - | - |
| 1777981527 | 16.67° C | 60% | 1008.5 hPa | 0 mm | 0.89 m/s, 90° | - | - |
| 1777981227 | 16.67° C | 61% | 1008.5 hPa | 0 mm | 0.45 m/s, 45° | - | - |
| 1777980926 | 16.11° C | 61% | 1008.5 hPa | 0 mm | 1.34 m/s, 68° | - | - |
| 1777980626 | 16.11° C | 60% | 1008.5 hPa | 0 mm | 1.34 m/s, 90° | - | - |
| 1777980327 | 16.67° C | 60% | 1008.5 hPa | 0 mm | 0.89 m/s, 135° | - | - |
| 1777980026 | 16.67° C | 61% | 1008.6 hPa | 0 mm | 0 m/s | - | - |
| 1777979726 | 16.11° C | 62% | 1008.6 hPa | 0 mm | 0.89 m/s, 135° | - | - |
| 1777979426 | 16.67° C | 64% | 1008.6 hPa | 0 mm | 0.89 m/s, 90° | - | - |
| 1777979126 | 16.11° C | 62% | 1008.6 hPa | 0 mm | 1.34 m/s, 90° | - | - |
| 1777978826 | 16.11° C | 62% | 1008.7 hPa | 0 mm | 1.34 m/s, 45° | - | - |
| 1777978526 | 15.56° C | 65% | 1008.8 hPa | 0 mm | 0.89 m/s, 23° | - | - |
| 1777978226 | 15.56° C | 64% | 1008.8 hPa | 0 mm | 1.34 m/s, 0° | - | - |
| 1777977926 | 15.56° C | 64% | 1008.9 hPa | 0 mm | 1.34 m/s, 45° | - | - |
| 1777977626 | 15.56° C | 64% | 1009 hPa | 0 mm | 0.89 m/s, 90° | - | - |
| 1777977325 | 15.56° C | 66% | 1008.9 hPa | 0 mm | 1.34 m/s, 45° | - | - |
| 1777977026 | 15.56° C | 65% | 1008.9 hPa | 0 mm | 0.89 m/s, 45° | - | - |
* Rain latest hour (hover to see other rain measurements)
** Current wind speed in m/s (hover to see current wind gust speed)